{"data":{"norad_id":68782,"epoch":"2026-09-20T02:04:17.900256Z","epoch_age_seconds":75747,"freshness":"FRESH","line1":"1 68782U 26086S   26263.08631829  .00007455  00000+0  23299-3 0  9997","line2":"2 68782  97.2855 298.5508 0001182  95.8441 264.2936 15.33448276 23627","mean_motion":15.33448276,"eccentricity":0.0001182,"inclination_deg":97.2855,"raan_deg":298.5508,"arg_perigee_deg":95.8441,"mean_anomaly_deg":264.2936,"bstar":0.00023299,"rev_number":2362,"period_min":93.906004039226,"perigee_km":464.72450557982,"apogee_km":466.34234926887,"semimajor_km":6843.6704274243,"source":"CELESTRAK","updated_at":"2026-09-20T09:00:44.001695Z"}}